Regional Weather Roundup
Issued by NWS Wakefield, VA

Home | Current Version | Previous Version | Text Only | Print | Product List | Glossary On
Versions: 1 2 3 4 5 6 7 8 9 10 11 12 13 14 15 16 17 18 19 20 21 22 23 24 25 26 27 28 29 30 31 32 33 34 35 36 37 38 39 40 41 42 43 44 45 46 47 48 49 50
000
ASUS41 KAKQ 191215
RWRAKQ

REGIONAL WEATHER ROUNDUP
NATIONAL WEATHER SERVICE WAKEFIELD VA
700 AM EST FRI JAN 19 2018

Note: "fair" indicates few or no clouds below 12,000 feet with no
significant weather and/or obstructions to visibility. * = Denotes
station may not report precipitation (e.g., rain,snow,etc.),
thunder or fog.

VAZ042-051-052>054-056-191300-
NORTHERN VIRGINIA

CITY           SKY/WX    TMP DP  RH WIND       PRES   REMARKS
WASH NATIONAL  FAIR      28  19  69 CALM      30.14R
DULLES         FAIR      19  14  81 E3        30.12R
FORT BELVOIR   FAIR      18  14  85 CALM      30.13R
QUANTICO       PTCLDY    21  17  84 NW6       30.14
FREDERICKSBRG* FAIR      19  17  90 CALM      30.12R
STAFFORD*      FAIR      17  15  93 CALM      30.15S
WARRENTON      FAIR      15  10  82 CALM      30.11R
CULPEPER*      FAIR      15  11  84 CALM      30.12S
MANASSAS*      FAIR      15  13  91 CALM      30.13R
LEESBURG*      FAIR      28  18  64 NW12      30.13R WCI  18
WINCHESTER     FAIR      32   9  37 CALM      30.13R
FRONT ROYAL*   FAIR      32   7  34 SE5       30.10R
LURAY*         FAIR      25  12  58 CALM      30.11R
$$

VAZ048-049-060>072-079>083-191300-
CENTRAL AND SOUTH CENTRAL VIRGINIA

CITY           SKY/WX    TMP DP  RH WIND       PRES   REMARKS
RICHMOND       FAIR      26  15  63 CALM      30.13S
CHESTERFIELD*  NOT AVBL
PETERSBURG*    FAIR      23  16  74 SW3       30.16R
HANOVER        FAIR      26  12  55 S6        30.14R
TAPPAHANNOCK*  FAIR      21  18  88 CALM      30.14S
QUINTON*       FAIR      22  19  88 CALM      30.13S
CHARLOTTSVILLE FAIR      39  -3  17 VRB3      30.09S
GORDONSVILLE*  FAIR      23  14  70 SW6       30.10S
ORANGE*        FAIR      25  12  58 CALM      30.10S
LOUISA*        FAIR      27   8  43 SW5       30.15R
BUMPASS*       FAIR      27   8  43 SW3       30.11R
FARMVILLE*     FAIR      22  14  72 S6        30.13R
CREWE*         FAIR      26  11  53 CALM      30.14R
FORT PICKETT*  FAIR      28  10  48 SW6       30.15R
CHASE CITY*    FAIR      24  12  59 CALM      30.17R
CLARKSVILLE*   FAIR      28  12  50 W3        30.18R
SOUTH HILL*    FAIR      28  15  57 SW5       30.22R
LAWRENCEVILLE* FAIR      29  13  51 W3        30.16R
EMPORIA*       FAIR      21  18  86 CALM      30.19R
$$

VAZ088>098-191300-
SOUTHEAST VIRGINIA

CITY           SKY/WX    TMP DP  RH WIND       PRES   REMARKS
NORFOLK        FAIR      27  20  75 SW10      30.15R WCI  17
VIRGINIA BEACH FAIR      30  17  58 SW5       30.15R
NORFOLK NAVAL  FAIR      29  19  66 SW7       30.16R
WEST POINT*    FAIR      21  18  88 CALM      30.16S
SALUDA*        FAIR      24  19  80 W3        30.14R
NEWPORT NEWS   FAIR      26  19  74 SW6       30.16R
LANGLEY AFB    FAIR      27  20  75 SW7       30.14S
FORT EUSTIS    FAIR      27  19  73 CALM      30.13R
WILLIAMSBURG*  FAIR      25  18  74 CALM      30.16R
HR EXEC AP*    FAIR      19  16  88 CALM      30.17R
FRANKLIN*      FAIR      21  19  92 CALM      30.17S
US460-WAKEFLD  FAIR      26  17  68 CALM      30.15S
$$

VAZ020-022-025-037-045-191300-
WEST CENTRAL AND SOUTHWEST VIRGINIA

CITY           SKY/WX    TMP DP  RH WIND       PRES   REMARKS
STAUNTON*      FAIR      27   4  38 SW5       30.13R
WAYNESBORO*    FAIR      34  -3  20 SW8       30.10S
HOT SPRINGS VA FAIR      23  -6  27 W23G29    30.05R WCI   7
LYNCHBURG      FAIR      29   5  36 W6        30.14R
DANVILLE       FAIR      20  13  74 SW5       30.20R
SOUTH BOSTON*  FAIR      24  12  59 CALM      30.20R
MARTINSVILLE   FAIR      13   8  82 CALM      30.22R
ROANOKE        FAIR      31   5  33 W12G21    30.19R WCI  22
BLACKSBURG     FAIR      26   5  40 SW5       30.19R
DUBLIN*        FAIR      23   9  54 SW7       30.19R
MARION*        FAIR      18   6  59 W10       30.22R WCI   7
HILLSVILLE*    FAIR      27  -2  28 W12G18    30.14S WCI  17
RICHLANDS*     FAIR      19   8  60 W10       30.20R WCI   8
WISE*          FAIR      19  10  68 SW6       30.21R
ABINGDON*      FAIR      16  11  83 CALM      30.25S
$$

MDZ021>025-VAZ099-100-191300-
SOUTHERN MARYLAND AND THE DELMARVA PENINSULA

CITY           SKY/WX    TMP DP  RH WIND       PRES   REMARKS
PATUXENT RIVER CLEAR     22  16  78 S3        30.12R
BAY BRIDGE APT FAIR      25  16  68 MISG      30.13R
LEONARDTOWN    FAIR      28  16  59 CALM      30.13R
DOVER          FAIR      24  17  75 CALM      30.12R
GEORGETOWN     FAIR      20  15  81 CALM      30.12R
EASTON         CLEAR     25  18  74 CALM      30.16R
CAMBRIDGE      CLEAR     21  16  79 CALM      30.12R
SALISBURY      FAIR      19  16  88 SE3       30.12S
OCEAN CITY     FAIR      24  19  81 SW3       30.13R
WALLOPS ISLAND FAIR      31  19  61 SW7       30.14R
ACCOMACK*      FAIR      24  20  85 CALM      30.14R
$$

NCZ012>017-030>032-191300-
NORTH CENTRAL AND EASTERN NORTH CAROLINA

CITY           SKY/WX    TMP DP  RH WIND       PRES   REMARKS
ROANOKE RAPIDS FAIR      23  18  80 SW7       30.18R
RALEIGH        FAIR      20  18  92 NW3       30.21R
ELIZABETH CITY FAIR      26  22  84 SW5       30.18R
AHOSKIE*       FAIR      22  18  84 CALM      30.18S
EDENTON*       FAIR      33  24  71 CALM      30.20R
CURRITUCK*     FAIR      24  22  90 CALM      30.18R
KILL DEVIL HLS FAIR      28  24  85 MISG      30.17R
MANTEO         FAIR      29  23  81 W7        30.20R
CAPE HATTERAS  FAIR      33  29  85 W6        30.21R
TARBORO*       NOT AVBL
GOLDSBORO      FAIR      27  21  78 SW6       30.21R
WASHINGTON     FAIR      28  22  78 SW5       30.21R
GREENVILLE     FAIR      28  23  80 CALM      30.22R
NEW BERN       FAIR      28  20  71 CALM      30.23R
WILMINGTON     FAIR      29  19  66 W5        30.25S
$$

VAZ048-191300-
ELSEWHERE

CITY           SKY/WX    TMP DP  RH WIND       PRES   REMARKS
HARRISBURG PA  FAIR      21  16  81 CALM      30.08R
BALTIMORE      FAIR      21  14  74 CALM      30.11R
ANNAPOLIS      FAIR      27  19  72 NW3       30.13R
ANDREWS AFB    FAIR      26  13  58 NW3       30.10R
PHILADELPHIA   MOCLDY    25  17  72 W6        30.11R
HENDERSON NC   FAIR      24   8  50 W6        30.18R
GREENSBORO     FAIR      21  15  78 SW5       30.19R
ROCKY MOUNT    NOT AVBL
$$

VAZ100-191300-
MARINE

STATION/POSITION TIME  TEMP    WIND        PRES    WAVE   SWELL
                       AIR SEA DIR/SP/G            HT/PER HT/PER
                 (UTC) (F)     (DEG/KT/KT) (MB)    (FT/S) (FT/S)
BRANDYWINE LGT   1136   31     260/  8/ 10 1020.0R
CAPE MAY NJ      1136   29 32  230/  4/  5 1019.3R
LEWES DE         1136   26 33  240/  2/  3 1019.6R
15NM E FENWICK I 1150   36 40  260/  6/  8 1020.0S   3/ 5   2/ 5
OCEAN-CITY-INLET 1136   29 34  270/  4/  5 1020.2R
WACHAPREAGUE VA  1136   26 32  250/  3/  3 1020.7R
THOMAS POINT MD  1200   29 32  270/  4/  4   N/A
GOOSES REEF MD   1200   31 32  360/  4/  4 1020.3    0
COVE POINT MD    1136   31      CALM  /  5 1020.3R
SOLOMONS ISLAND  1136   29 34   CALM  /  1 1019.5R
BISHOPS HEAD MD  1136   30 31  190/  5/  6 1020.2R
PINEY POINT MD   1148          200/  6/  7   N/A
POTOMAC MD       1200   30 33  310/  6/  8 1019.7    0
CAMBRIDGE MD     1136   24 32              1020.4R
LEWISETTA VA     1136   28 32  240/  5/  6 1020.2R
RAPPAHANNOCK LGT 1148          230/  6/  6 1021.2R
STINGRAY PT      1200   31 33  290/  4/  4 1023.3    0
YORK RVR RNG VA  1136   31     250/ 10/ 11 1021.1R
YORKTOWN VA      1142   31 34  240/  6/  8 1020.4R
DOMINION TERM VA 1142   30     240/  7/  8 1021.1S
KIPTOPEKE VA     1148      33  260/  8/  9   N/A
CAPE HENRY VA    1142   29     220/  6/  7   N/A
WILLOUBY STN VA  1148          240/ 12/ 12 1020.6R
S CRANEY ISL VA  1142   29     230/  6/  9 1020.9R
CAPE HENRY BUOY  1200      40                N/A     2/11   2/11
1ST LANDING BUOY 1200   31 35  250/ 10/ 12 1020.8    1/ 3
CAPE CHARLES BUO 1151      37                N/A     1/10
64NM E OF VA BCH 1150   43 60  280/ 14/ 16 1021.0R   4/ 5   3/ 7
DUCK PIER NC     1142   31 38  240/  8/  9 1021.1R
44100 DUCK FRF   1145      43                N/A     3/10   2/11
44056 DUCK FRF   1130      38                N/A     2/10   2/11
OREGON INLET NC  1142   32 34  240/ 10/ 12 1022.1R
HATTERAS NC      1142   34 41  250/  6/  8 1022.6R
DIAMOND SHLS NC  1200   46     280/ 12/ 16 1023.1
CAPE LOOKOUT NC  1200          270/ 10/ 11 1023.7R
$$



USA.gov is the U.S. government's official web portal to all federal, state and local government web resources and services.